TimeCEST,TemperatureF,Dew PointF,Humidity,Sea Level PressureIn,VisibilityMPH,Wind Direction,Wind SpeedMPH,Gust SpeedMPH,PrecipitationIn,Events,Conditions,WindDirDegrees,DateUTC
12:00 AM,77.0,57.2,50,29.95,-9999.0,ESE,4.6,-,N/A,,Clear,110,2013-08-06 22:00:00
12:30 AM,75.2,57.2,53,29.95,-9999.0,East,5.8,-,N/A,,Clear,90,2013-08-06 22:30:00
1:00 AM,75.2,57.2,53,29.95,-9999.0,Variable,3.5,-,N/A,,Clear,0,2013-08-06 23:00:00
1:30 AM,75.2,57.2,53,29.95,-9999.0,Variable,2.3,-,N/A,,Clear,0,2013-08-06 23:30:00
2:00 AM,73.4,57.2,57,29.95,-9999.0,East,4.6,-,N/A,,Clear,80,2013-08-07 00:00:00
2:30 AM,73.4,57.2,57,29.98,-9999.0,Variable,2.3,-,N/A,,Clear,0,2013-08-07 00:30:00
3:00 AM,71.6,57.2,60,29.98,-9999.0,Variable,2.3,-,N/A,,Clear,0,2013-08-07 01:00:00
3:30 AM,69.8,57.2,64,29.98,-9999.0,Variable,2.3,-,N/A,,Clear,0,2013-08-07 01:30:00
4:00 AM,69.8,57.2,64,29.98,-9999.0,Variable,2.3,-,N/A,,Clear,0,2013-08-07 02:00:00
4:30 AM,71.6,57.2,60,29.98,-9999.0,East,4.6,-,N/A,,Clear,80,2013-08-07 02:30:00
5:00 AM,69.8,57.2,64,29.98,-9999.0,Variable,2.3,-,N/A,,Clear,0,2013-08-07 03:00:00
5:30 AM,69.8,57.2,64,29.98,-9999.0,Variable,3.5,-,N/A,,Clear,0,2013-08-07 03:30:00
6:00 AM,71.6,57.2,60,29.98,-9999.0,East,5.8,-,N/A,,Clear,90,2013-08-07 04:00:00
6:30 AM,71.6,59.0,64,29.98,-9999.0,Variable,2.3,-,N/A,,Clear,0,2013-08-07 04:30:00
7:00 AM,75.2,59.0,57,29.95,-9999.0,Variable,3.5,-,N/A,,Clear,0,2013-08-07 05:00:00
7:30 AM,78.8,59.0,51,29.98,-9999.0,ENE,4.6,-,N/A,,Clear,60,2013-08-07 05:30:00
8:00 AM,78.8,59.0,51,29.98,-9999.0,NW,4.6,-,N/A,,Clear,320,2013-08-07 06:00:00
8:30 AM,82.4,59.0,45,29.98,-9999.0,Variable,2.3,-,N/A,,Clear,0,2013-08-07 06:30:00
9:00 AM,84.2,57.2,40,29.98,-9999.0,South,4.6,-,N/A,,Clear,170,2013-08-07 07:00:00
9:30 AM,86.0,57.2,37,30.01,-9999.0,South,4.6,-,N/A,,Clear,170,2013-08-07 07:30:00
10:00 AM,87.8,57.2,35,30.01,-9999.0,South,4.6,-,N/A,,Clear,170,2013-08-07 08:00:00
10:30 AM,89.6,57.2,33,30.01,-9999.0,Variable,5.8,-,N/A,,Clear,0,2013-08-07 08:30:00
11:00 AM,91.4,55.4,29,30.01,-9999.0,SE,4.6,-,N/A,,Clear,130,2013-08-07 09:00:00
11:30 AM,91.4,57.2,31,29.98,-9999.0,SSE,6.9,-,N/A,,Clear,150,2013-08-07 09:30:00
12:00 PM,93.2,53.6,26,29.98,-9999.0,West,6.9,-,N/A,,Clear,270,2013-08-07 10:00:00
12:30 PM,91.4,55.4,29,29.98,-9999.0,South,9.2,-,N/A,,Clear,190,2013-08-07 10:30:00
1:00 PM,93.2,55.4,28,29.98,-9999.0,NW,6.9,-,N/A,,Clear,310,2013-08-07 11:00:00
1:30 PM,95.0,55.4,26,29.98,-9999.0,SSW,9.2,-,N/A,,Clear,200,2013-08-07 11:30:00
2:00 PM,95.0,55.4,26,29.98,-9999.0,SSE,10.4,-,N/A,,Clear,160,2013-08-07 12:00:00
2:30 PM,95.0,53.6,25,29.98,-9999.0,SSW,9.2,20.7,N/A,,Clear,200,2013-08-07 12:30:00
3:00 PM,96.8,53.6,23,29.95,-9999.0,South,12.7,-,N/A,,Clear,180,2013-08-07 13:00:00
3:30 PM,98.6,51.8,21,29.95,-9999.0,South,9.2,-,N/A,,Clear,180,2013-08-07 13:30:00
4:00 PM,96.8,53.6,23,29.95,-9999.0,SW,9.2,-,N/A,,Clear,220,2013-08-07 14:00:00
4:30 PM,98.6,53.6,22,29.95,-9999.0,South,9.2,-,N/A,,Clear,190,2013-08-07 14:30:00
5:00 PM,96.8,51.8,22,29.95,-9999.0,SE,6.9,-,N/A,,Clear,140,2013-08-07 15:00:00
5:30 PM,96.8,51.8,22,29.95,-9999.0,South,10.4,-,N/A,,Clear,190,2013-08-07 15:30:00
6:00 PM,96.8,51.8,22,29.95,-9999.0,South,8.1,-,N/A,,Clear,190,2013-08-07 16:00:00
6:30 PM,96.8,51.8,22,29.95,-9999.0,South,8.1,-,N/A,,Clear,190,2013-08-07 16:30:00
7:00 PM,95.0,53.6,25,29.92,-9999.0,East,10.4,-,N/A,,Clear,100,2013-08-07 17:00:00
7:30 PM,93.2,51.8,24,29.95,-9999.0,SSE,10.4,-,N/A,,Clear,150,2013-08-07 17:30:00
8:00 PM,87.8,53.6,31,29.95,-9999.0,SE,9.2,-,N/A,,Clear,130,2013-08-07 18:00:00
8:30 PM,84.2,55.4,37,29.95,-9999.0,ESE,9.2,-,N/A,,Clear,120,2013-08-07 18:30:00
9:00 PM,82.4,55.4,39,29.95,-9999.0,East,5.8,-,N/A,,Clear,100,2013-08-07 19:00:00
9:30 PM,78.8,55.4,44,29.95,-9999.0,ESE,5.8,-,N/A,,Clear,110,2013-08-07 19:30:00
10:00 PM,78.8,55.4,44,29.95,-9999.0,East,6.9,-,N/A,,Clear,100,2013-08-07 20:00:00
10:30 PM,80.6,55.4,42,29.98,-9999.0,East,5.8,-,N/A,,Clear,90,2013-08-07 20:30:00
11:00 PM,77.0,55.4,47,29.98,-9999.0,East,4.6,-,N/A,,Clear,100,2013-08-07 21:00:00
11:30 PM,77.0,55.4,47,29.98,-9999.0,East,5.8,-,N/A,,Clear,90,2013-08-07 21:30:00